Temperature
15 16 16 16 14 12 13 14 15 17 17 19 20 19 17 17 18 19 20 20 19 18 17 15 14 14 14 14 13 13 13 13 13 13 12 12 12 12 12 12 12 12 12 12 12 12 11 11 11
15 16 16 16 12 13 13 14 15 17 19 19 19 19 19 19 20 20 20 20 19 18 17 15 14 14 14 13 13 13 13 13 12 12 12 12 12 12 11 12 12 12 12 12 12 12 11 11 11
15 15 16 12 12 13 15 15 15 17 19 19 19 20 20 20 21 21 21 20 18 17 16 15 14 14 13 13 13 13 13 12 12 12 12 12 12 11 11 11 11 12 12 12 12 11 11 11 11
15 15 14 11 12 13 14 16 16 17 19 19 19 19 20 20 21 21 20 19 18 17 16 15 14 14 13 13 13 13 12 12 12 12 12 12 12 11 11 11 11 11 12 12 12 11 11 11 11
15 15 12 12 12 13 13 15 17 17 18 19 19 18 19 20 20 21 20 19 18 17 16 14 14 13 13 13 13 13 13 12 12 12 12 12 12 11 11 11 11 11 11 11 11 11 11 11 11
15 12 11 12 13 14 14 17 17 17 17 18 19 18 19 20 20 20 20 19 18 17 16 14 14 13 13 13 13 13 12 12 12 12 12 12 11 11 11 11 11 11 11 11 11 11 11 11 11
14 11 11 12 13 14 15 17 17 16 17 18 20 17 19 20 20 19 19 18 17 17 15 14 14 13 13 13 13 13 13 12 12 12 12 12 11 11 11 11 11 11 11 11 10 10 10 10 10
15 11 12 12 13 14 16 18 19 18 18 20 20 18 19 20 20 19 18 17 17 16 15 15 14 13 13 13 13 13 12 12 12 12 12 12 12 11 11 11 11 11 11 11 10 10 10 10 10
14 11 11 12 13 15 17 17 19 19 19 19 20 20 21 21 20 18 17 16 16 15 15 15 14 14 13 13 13 12 12 12 12 12 12 12 12 11 12 11 11 11 11 10 10 10 10 10 10
13 11 12 14 14 16 17 17 18 18 17 17 18 20 20 20 20 19 18 17 17 17 16 15 15 14 14 13 13 12 12 12 12 12 12 12 12 12 11 11 11 11 10 10 10 10 10 10 9
11 12 13 14 16 16 16 17 18 17 16 18 19 20 20 20 19 19 20 20 20 19 17 16 15 15 14 13 13 12 12 12 12 12 12 12 12 11 11 11 11 11 10 10 10 10 10 9 9
11 12 14 15 16 16 16 17 17 17 19 20 21 21 21 20 20 20 20 20 19 19 18 17 16 15 14 14 13 13 13 12 12 12 11 11 11 11 11 11 11 10 10 10 10 10 9 9 9
12 12 14 15 16 16 16 16 16 17 19 19 20 20 21 21 21 21 21 20 20 19 18 17 16 15 14 14 14 13 13 13 12 12 11 11 11 11 11 10 10 10 10 10 9 9 9 9 8
12 13 14 15 15 16 15 15 15 17 19 19 19 19 20 21 21 21 20 19 20 20 19 18 17 16 15 14 14 14 13 13 12 12 12 11 11 11 10 10 10 10 10 9 9 9 9 8 8
14 13 13 13 14 15 15 14 14 18 18 18 19 19 19 20 20 20 21 21 21 20 19 18 18 16 15 15 14 14 13 13 12 12 11 11 11 10 10 10 10 10 9 9 9 9 8 8 8
12 12 12 13 13 14 14 13 14 18 17 17 18 18 19 19 19 20 20 20 20 20 19 19 18 17 16 15 15 14 14 13 13 12 12 11 11 10 10 10 9 9 9 9 9 9 8 8 8
11 11 11 13 13 13 13 13 14 17 16 16 17 18 18 19 19 19 20 20 20 20 19 18 18 17 17 16 14 14 13 13 13 12 12 11 11 10 10 10 9 9 9 9 9 8 8 8 8
10 10 11 11 13 12 12 12 14 16 15 15 17 17 18 18 19 20 20 20 19 19 19 18 18 17 16 15 13 13 12 13 12 12 12 11 11 10 10 10 9 9 9 9 9 8 8 8 8
11 11 11 12 13 13 12 12 13 14 14 13 15 16 17 19 20 20 20 19 19 19 18 18 17 17 16 14 13 13 13 13 13 12 12 11 11 10 10 10 9 9 9 9 9 8 8 8 8
11 11 11 12 13 13 12 12 13 13 13 14 15 16 17 19 19 19 19 19 19 19 18 18 18 17 17 16 16 16 15 14 13 12 12 11 11 10 10 10 9 9 9 9 9 8 8 8 8
10 10 11 12 13 13 13 12 12 13 13 15 16 17 18 19 19 20 20 19 19 19 19 19 19 18 18 17 16 14 12 11 11 11 12 11 11 11 10 10 9 9 9 9 9 8 8 8 8
11 11 11 12 12 11 12 11 11 12 12 12 13 15 17 18 19 19 20 20 20 20 20 19 19 19 18 17 15 14 13 13 14 13 13 12 11 11 10 10 10 9 9 9 9 9 8 8 8
11 12 11 11 11 10 11 10 10 11 12 13 13 15 17 19 19 19 20 20 20 20 20 20 19 19 18 17 16 15 15 15 14 13 12 12 11 11 10 10 10 9 9 9 9 9 8 8 8
11 11 11 10 10 10 10 10 10 10 12 13 13 15 17 19 19 19 20 20 20 20 20 20 19 19 18 18 17 16 15 15 14 13 12 12 11 11 10 10 10 10 9 9 9 9 8 8 8
11 10 9 9 9 10 10 10 11 11 12 13 14 15 18 19 19 19 19 20 20 20 20 20 19 19 18 18 17 16 16 15 14 14 13 12 11 11 11 10 10 10 9 9 9 9 9 8 8
10 10 10 10 10 9 9 10 11 11 12 13 15 16 17 18 19 19 19 19 20 20 19 19 19 19 18 18 17 16 16 15 14 14 13 13 13 12 12 11 10 10 10 9 9 9 9 8 8
9 10 10 10 9 9 8 9 9 10 11 12 12 14 16 17 18 19 19 19 19 19 19 19 19 18 18 18 17 16 15 14 14 14 13 12 12 12 11 11 10 10 9 9 9 9 9 8 8
10 9 9 9 9 9 9 8 10 11 12 12 12 13 15 17 18 18 19 19 19 19 19 19 18 18 18 17 17 16 15 15 14 13 12 12 12 12 11 11 10 10 9 9 9 9 9 8 8
8 9 9 9 9 9 9 10 10 12 13 13 13 14 15 17 18 18 18 18 18 18 18 18 18 18 17 17 16 16 15 14 13 12 12 12 11 11 11 11 10 10 9 9 9 9 9 8 8
8 8 7 8 8 8 8 10 12 11 12 12 13 14 15 16 17 17 18 18 18 18 18 18 18 17 17 16 16 15 14 13 12 12 12 11 11 11 11 10 10 10 9 9 9 9 9 8 8
Wind_Speed
2 4 3 4 5 2 5 7 5 4 5 3 4 7 9 9 7 4 2 12 13 14 19 22 23 22 21 19 18 16 16 15 15 15 15 15 14 14 14 14 14 15 15 14 14 14 15 15 15
3 3 4 5 4 3 7 7 7 8 4 3 3 5 6 5 3 6 7 10 14 16 18 20 23 22 21 20 19 18 16 15 15 15 15 14 14 14 14 14 14 15 14 14 14 14 14 15 15
4 3 4 4 5 8 7 7 9 5 4 3 2 2 5 5 5 8 7 13 14 14 16 20 24 23 22 21 20 18 17 16 15 15 15 14 14 14 14 14 14 14 13 13 13 13 13 14 14
4 4 4 3 8 8 7 5 3 2 2 4 4 3 2 1 6 7 11 15 16 12 15 21 24 23 22 22 20 19 18 16 15 15 15 14 14 14 13 13 13 12 12 12 12 12 12 13 13
4 4 2 4 8 7 7 6 4 3 4 4 6 6 3 3 5 9 15 16 17 13 15 20 24 23 23 22 21 20 18 17 16 15 15 14 14 13 13 13 12 12 12 12 12 12 12 12 12
4 4 4 8 9 6 6 5 4 5 4 4 7 7 4 2 7 11 14 14 14 14 14 19 24 23 23 22 21 20 19 17 16 15 15 14 13 13 13 12 12 11 11 11 11 11 11 11 11
5 5 6 6 5 7 7 6 6 7 7 8 9 8 3 3 7 12 11 11 11 11 11 13 19 22 23 22 21 20 19 18 17 16 15 14 14 13 13 12 12 11 11 11 10 10 10 10 10
6 5 5 5 6 7 4 5 5 9 8 4 9 10 7 8 11 12 11 10 10 10 9 9 14 17 19 20 22 21 20 18 17 17 16 15 14 13 13 12 11 11 10 10 9 9 9 9 8
5 4 7 8 8 6 3 4 3 4 5 4 3 3 3 16 18 16 12 11 12 12 9 8 10 14 16 18 20 21 20 19 18 17 16 14 12 12 12 11 10 10 10 9 8 8 8 8 7
6 8 11 7 7 5 3 4 4 3 4 4 2 3 10 19 21 21 20 21 20 19 15 10 10 12 14 16 17 17 17 17 16 16 15 14 13 12 11 11 10 9 8 8 7 7 7 7 7
8 9 8 8 6 4 3 3 3 6 6 9 10 10 16 18 20 20 21 21 22 20 17 14 12 12 12 11 13 13 13 14 15 16 16 15 13 11 10 8 7 7 7 6 6 7 6 6 5
8 8 8 7 7 6 5 3 3 7 9 7 9 14 19 22 22 22 22 20 16 17 18 15 13 12 12 12 11 12 11 12 12 15 17 15 10 8 8 6 6 6 6 6 5 4 4 4 4
10 6 8 9 8 7 6 7 6 8 8 2 6 14 19 22 22 21 17 15 15 18 19 17 16 15 12 10 10 11 11 12 14 15 17 16 11 7 7 6 6 6 6 5 4 3 3 2 2
8 10 9 7 8 6 8 10 6 10 5 4 9 15 18 21 21 16 13 15 17 19 20 18 18 17 14 12 10 10 12 14 15 15 17 18 14 11 8 6 6 6 7 6 5 4 2 2 2
5 6 8 10 9 7 5 12 11 11 6 7 9 12 15 17 15 17 19 19 20 20 19 20 19 18 17 15 12 11 13 15 13 14 17 18 16 14 11 7 6 7 8 7 5 3 2 2 2
6 8 10 9 10 9 9 15 11 9 10 11 10 11 12 14 14 16 16 16 15 15 17 19 18 19 19 16 13 11 13 14 13 15 17 18 17 16 12 7 6 9 9 7 4 3 2 2 1
6 10 12 9 9 8 11 11 11 9 10 12 11 12 13 13 14 14 14 15 15 17 18 19 20 21 20 17 13 11 12 12 13 15 16 17 18 17 14 9 9 11 8 5 4 2 2 2 2
10 10 9 11 7 10 11 11 10 7 10 12 12 11 12 14 18 16 16 15 14 15 17 18 19 19 17 14 10 9 10 11 13 14 16 18 18 18 15 10 10 11 6 5 4 3 2 2 3
9 9 10 8 7 9 12 14 15 11 9 11 11 11 13 16 16 13 14 14 13 14 16 19 20 19 17 15 15 15 15 14 12 12 16 19 19 18 15 9 9 9 7 7 7 4 4 2 2
11 11 10 6 6 8 8 13 12 13 11 11 13 14 14 14 12 12 12 13 16 18 19 20 21 21 20 18 17 14 12 10 10 9 13 18 19 19 16 11 9 9 7 7 7 5 4 2 2
18 17 13 7 1 3 4 9 10 10 9 10 11 12 12 15 15 14 13 15 16 18 21 20 23 23 23 20 12 9 7 6 8 12 13 15 19 19 17 15 12 10 9 9 9 8 7 4 2
23 16 12 9 5 5 5 7 9 9 10 12 13 12 13 14 14 13 12 13 16 19 19 20 22 22 22 20 17 19 15 15 16 12 12 12 17 18 18 17 15 12 9 9 9 8 6 6 4
10 10 12 11 10 8 6 7 9 6 11 14 14 15 15 15 14 14 14 14 15 16 16 18 19 21 21 22 22 22 18 15 10 9 12 13 13 15 17 17 14 12 10 10 10 9 7 6 6
7 6 6 7 8 15 17 11 9 9 13 10 11 13 15 15 14 14 12 11 11 11 12 14 17 19 20 22 23 23 21 16 13 13 15 14 11 12 14 15 14 13 11 11 10 10 10 8 6
11 9 8 9 11 12 11 12 11 11 11 12 12 13 13 12 12 12 12 11 11 12 13 14 17 19 20 22 23 23 22 20 19 18 17 15 11 11 15 13 13 12 11 12 11 10 10 9 8
18 16 12 10 9 6 8 13 10 11 10 11 12 12 11 11 11 11 12 11 11 12 12 14 17 18 19 21 22 21 20 17 15 16 14 16 14 14 15 15 14 13 13 12 11 9 9 9 9
13 15 9 5 3 4 7 7 8 6 8 10 11 11 13 12 11 11 10 10 10 11 12 14 16 16 18 20 20 19 19 18 16 15 13 13 11 11 14 15 14 13 13 12 11 9 10 9 9
9 10 8 9 9 8 6 7 7 8 13 13 12 13 14 11 10 9 8 8 8 9 9 10 13 15 15 17 17 16 18 18 16 14 15 14 13 13 15 15 15 14 13 12 12 9 9 10 9
7 10 7 7 6 7 6 7 8 12 13 13 14 12 11 11 9 8 7 6 6 6 7 9 10 11 12 14 14 14 15 15 15 15 16 15 14 14 15 16 15 15 14 13 12 11 11 11 9
8 8 7 8 6 6 5 8 5 9 8 8 10 9 8 7 6 5 5 5 5 6 7 8 9 10 11 12 12 13 13 14 15 15 15 15 15 15 15 15 15 14 14 14 14 13 12 12 12
Wind_Direction
104 92 82 62 65 65 235 238 227 239 224 215 167 161 165 170 172 198 134 147 142 154 166 166 161 158 156 153 150 144 140 137 131 128 124 121 117 111 107 105 101 98 95 93 91 90 89 87 86
121 105 64 70 121 212 252 237 225 225 204 123 107 125 145 195 183 138 146 166 151 155 163 163 162 159 157 155 150 146 143 140 135 132 128 125 122 117 113 108 104 100 97 94 93 93 92 89 87
121 73 99 107 169 200 230 227 224 243 216 181 135 154 177 185 175 175 177 159 149 154 160 164 162 159 157 155 152 149 146 142 137 134 132 130 126 121 116 112 107 103 100 99 98 98 97 92 88
105 61 68 135 223 224 224 235 201 234 218 198 158 153 220 349 180 175 151 153 150 153 159 166 163 161 159 156 154 152 149 145 143 140 137 133 130 126 121 116 112 109 106 104 103 102 99 94 92
71 99 150 237 239 242 240 250 227 219 212 188 160 163 173 18 106 134 148 155 155 155 160 167 164 163 161 158 157 155 153 151 148 146 141 138 135 131 127 124 120 116 113 111 109 106 102 98 95
82 94 169 233 243 253 251 229 202 220 216 186 162 160 178 89 130 146 151 154 156 156 160 168 166 165 162 161 160 158 157 156 155 152 148 145 142 138 135 131 127 123 118 114 112 109 105 100 96
140 147 206 224 246 254 243 199 199 212 216 208 174 157 212 170 159 146 143 143 149 154 159 166 168 165 165 164 163 162 161 160 159 156 153 150 147 145 142 138 133 128 123 118 115 111 107 102 98
159 157 212 219 222 247 233 196 206 193 216 189 156 161 201 183 147 134 131 140 151 159 164 166 165 164 165 166 167 165 165 163 162 159 155 153 153 151 146 142 139 133 128 124 119 113 108 101 95
130 166 218 212 202 234 229 216 236 181 157 163 194 191 188 137 140 140 145 156 168 175 178 171 165 164 164 165 169 167 166 166 164 159 155 150 146 143 141 144 145 142 137 130 123 113 103 91 84
163 210 222 210 199 210 222 216 217 155 167 183 166 65 122 143 153 160 168 175 180 185 186 180 172 165 164 168 169 166 165 166 160 156 151 146 143 140 141 152 153 147 138 129 121 109 92 83 75
189 214 222 226 222 222 239 246 218 170 207 206 194 171 154 160 166 174 179 183 186 185 185 184 177 170 168 166 165 164 162 159 156 155 152 149 144 142 143 147 148 137 123 106 96 88 85 81 75
202 228 218 221 215 222 231 242 239 202 224 227 201 165 165 172 178 184 187 188 184 184 189 185 181 176 173 168 167 166 162 160 159 159 157 153 148 146 149 149 145 134 127 114 102 98 89 78 71
219 234 226 229 231 231 240 242 239 246 250 258 146 158 176 183 189 193 191 184 183 188 190 189 185 183 178 171 172 172 170 168 165 163 165 164 160 159 160 160 159 156 150 143 131 120 105 82 67
216 223 241 237 229 226 234 252 227 249 237 177 163 178 191 193 194 188 184 185 191 194 193 190 189 187 183 183 181 178 175 172 170 170 172 172 171 169 166 164 166 171 171 166 159 152 134 105 89
198 221 253 238 224 223 214 259 232 234 203 202 197 196 200 207 199 196 194 194 194 195 192 192 191 189 189 188 184 180 179 176 176 177 177 178 178 176 172 168 175 183 179 169 156 146 126 113 97
185 212 241 235 206 201 187 249 249 225 196 213 216 210 211 216 211 209 204 201 196 191 192 193 192 193 194 193 188 184 182 180 182 181 181 182 182 181 175 174 183 184 175 165 151 140 130 125 108
196 214 225 234 204 184 193 237 247 221 197 216 218 214 216 221 224 219 210 205 197 193 192 193 194 195 196 194 189 185 183 185 185 184 184 187 186 184 180 183 184 177 170 165 158 143 145 149 133
200 206 211 215 207 184 206 231 246 229 199 218 222 218 217 221 226 220 213 208 201 195 193 194 197 197 194 191 186 185 187 191 190 190 190 187 189 186 183 183 180 173 165 166 164 154 135 133 130
192 194 212 218 199 188 219 232 239 238 217 227 229 223 222 226 231 225 216 209 201 195 194 195 196 196 190 192 193 195 199 197 196 195 192 189 189 187 185 183 176 176 179 179 169 151 142 128 124
213 216 221 235 207 201 230 243 240 234 224 221 224 225 224 227 233 227 217 207 203 201 200 199 199 196 194 197 198 199 195 195 195 190 192 192 190 189 189 184 182 181 178 174 172 157 144 138 139
217 217 215 213 199 218 243 270 249 244 227 229 227 226 223 221 226 225 216 210 207 205 203 202 201 199 198 196 189 178 167 166 185 195 198 195 193 191 190 189 184 183 180 184 184 174 161 160 153
225 215 208 213 219 241 204 261 259 239 242 235 233 230 230 228 225 224 218 211 208 210 206 203 201 200 198 192 189 187 193 198 200 196 196 191 192 192 192 189 187 185 185 185 186 180 169 154 161
214 190 200 212 224 246 228 244 265 236 241 241 233 230 231 230 226 226 222 216 211 207 203 203 201 200 196 193 194 195 200 203 191 179 184 189 192 193 192 190 188 187 188 187 182 178 176 170 163
178 156 186 206 218 240 227 222 259 221 222 233 232 229 231 231 230 230 227 216 212 203 198 197 197 200 196 194 196 198 200 193 181 184 189 191 192 193 193 191 190 189 188 187 185 183 181 181 170
185 177 194 204 214 233 203 213 244 222 215 218 228 233 232 229 226 227 223 214 209 201 197 194 195 199 196 195 198 200 201 196 193 191 192 190 190 194 195 191 190 189 190 187 182 181 184 182 180
196 192 200 201 206 224 183 218 240 225 219 222 228 234 235 231 227 227 223 215 211 206 197 193 195 198 195 195 200 201 200 199 200 195 193 193 196 196 190 190 190 189 186 184 181 182 185 183 186
188 202 196 186 182 204 219 250 287 237 232 231 233 234 236 234 230 229 225 214 210 206 201 196 195 196 195 196 197 199 198 198 198 194 191 193 191 188 185 188 189 187 184 183 180 186 186 183 188
189 177 177 197 197 220 231 230 228 212 218 222 225 230 234 232 231 227 222 216 211 207 202 195 195 196 195 194 196 198 199 199 196 190 192 191 188 183 183 187 188 186 185 182 182 185 183 182 187
178 186 186 190 196 192 218 244 217 200 204 213 222 227 228 228 227 223 219 212 204 196 191 191 192 191 190 192 193 193 195 194 191 192 193 191 187 183 184 186 187 187 186 184 185 187 181 184 186
176 178 178 192 206 195 203 254 245 207 213 215 227 231 231 228 223 217 207 193 187 188 187 186 187 188 189 187 186 190 188 187 190 193 191 187 186 186 185 184 185 187 188 186 187 188 186 187 189
Height
1496 1497 1499 1501 1505 1514 1513 1503 1495 1492 1489 1486 1486 1488 1490 1493 1498 1500 1494 1494 1497 1501 1505 1509 1513 1517 1520 1523 1526 1528 1530 1532 1533 1535 1536 1537 1538 1539 1540 1541 1541 1542 1542 1543 1543 1544 1544 1545 1545
1495 1496 1499 1500 1509 1517 1511 1497 1492 1487 1485 1485 1485 1486 1487 1488 1489 1490 1490 1493 1497 1500 1504 1508 1512 1516 1519 1522 1525 1528 1530 1532 1533 1535 1536 1537 1538 1539 1540 1541 1542 1542 1542 1543 1543 1544 1545 1545 1546
1494 1496 1498 1501 1508 1509 1500 1489 1486 1483 1483 1484 1484 1485 1486 1486 1487 1488 1490 1493 1496 1500 1504 1507 1512 1515 1519 1522 1525 1527 1530 1532 1533 1535 1536 1537 1538 1540 1541 1541 1542 1542 1543 1543 1544 1545 1545 1546 1546
1494 1496 1498 1503 1502 1496 1489 1483 1482 1483 1482 1482 1483 1484 1485 1486 1487 1488 1490 1493 1496 1500 1503 1507 1511 1515 1518 1521 1524 1527 1529 1531 1533 1535 1536 1537 1539 1540 1541 1541 1542 1543 1543 1544 1545 1545 1546 1547 1547
1493 1494 1499 1502 1496 1489 1484 1481 1481 1482 1481 1481 1482 1482 1483 1485 1486 1488 1490 1493 1496 1499 1504 1507 1511 1515 1518 1521 1524 1526 1529 1531 1533 1534 1536 1537 1539 1540 1540 1541 1542 1543 1544 1545 1545 1546 1547 1548 1548
1492 1492 1501 1499 1491 1485 1480 1479 1480 1480 1480 1480 1480 1481 1482 1484 1486 1488 1491 1494 1497 1500 1503 1507 1511 1514 1517 1520 1523 1526 1528 1530 1532 1534 1536 1537 1538 1539 1541 1542 1543 1544 1545 1545 1546 1547 1548 1548 1549
1489 1493 1495 1492 1488 1483 1477 1476 1476 1476 1477 1477 1478 1480 1480 1483 1486 1489 1491 1494 1498 1501 1504 1507 1510 1514 1517 1520 1523 1525 1528 1530 1532 1534 1535 1537 1538 1540 1541 1542 1543 1544 1545 1546 1547 1548 1548 1549 1550
1484 1488 1489 1488 1485 1480 1473 1472 1471 1472 1473 1474 1476 1477 1478 1481 1484 1488 1491 1494 1497 1501 1503 1506 1509 1513 1516 1519 1522 1524 1527 1529 1531 1533 1535 1536 1538 1540 1541 1542 1543 1545 1546 1547 1547 1548 1549 1550 1550
1481 1488 1486 1482 1480 1474 1470 1470 1469 1469 1470 1471 1473 1474 1475 1478 1481 1486 1489 1493 1496 1499 1502 1505 1508 1511 1514 1517 1520 1523 1526 1528 1531 1533 1534 1536 1538 1539 1541 1542 1544 1545 1546 1547 1548 1549 1550 1550 1551
1477 1480 1474 1471 1470 1469 1468 1468 1467 1468 1468 1469 1470 1471 1473 1476 1479 1482 1485 1488 1491 1495 1499 1502 1506 1509 1512 1516 1519 1522 1524 1527 1529 1531 1533 1535 1537 1539 1541 1542 1543 1545 1546 1547 1548 1549 1550 1551 1551
1470 1469 1466 1465 1465 1466 1466 1466 1465 1466 1467 1465 1465 1467 1470 1473 1476 1479 1481 1484 1487 1491 1495 1499 1503 1507 1510 1513 1517 1520 1522 1525 1528 1530 1532 1535 1537 1538 1540 1542 1543 1544 1546 1547 1548 1549 1550 1551 1551
1465 1462 1461 1461 1462 1464 1464 1463 1464 1463 1462 1462 1463 1464 1466 1469 1472 1475 1478 1481 1485 1489 1493 1496 1500 1504 1508 1511 1514 1517 1520 1523 1526 1528 1531 1533 1535 1537 1539 1541 1543 1544 1546 1547 1548 1549 1550 1551 1551
1460 1457 1457 1458 1460 1460 1461 1461 1461 1459 1459 1460 1460 1462 1463 1465 1468 1472 1475 1479 1482 1486 1490 1493 1497 1501 1505 1509 1512 1515 1518 1521 1524 1527 1529 1532 1534 1537 1539 1540 1542 1544 1545 1547 1548 1549 1550 1551 1551
1453 1454 1454 1455 1456 1457 1458 1456 1458 1454 1456 1457 1457 1458 1460 1462 1465 1469 1472 1476 1479 1483 1487 1490 1494 1498 1502 1505 1509 1512 1515 1518 1522 1524 1527 1530 1533 1535 1537 1539 1541 1543 1544 1546 1547 1549 1549 1550 1551
1450 1452 1452 1450 1452 1453 1456 1455 1451 1451 1453 1453 1454 1455 1457 1459 1462 1464 1468 1471 1475 1479 1483 1487 1490 1495 1498 1502 1506 1509 1512 1516 1519 1522 1525 1528 1531 1533 1536 1538 1540 1542 1543 1545 1546 1548 1549 1550 1550
1447 1451 1452 1445 1446 1448 1456 1451 1444 1445 1448 1449 1450 1452 1453 1456 1458 1461 1465 1468 1472 1476 1479 1483 1487 1491 1494 1498 1502 1505 1509 1512 1516 1519 1522 1525 1528 1531 1534 1536 1538 1540 1542 1544 1545 1547 1548 1549 1549
1447 1449 1447 1444 1441 1443 1448 1446 1439 1440 1442 1443 1445 1447 1449 1451 1454 1457 1460 1464 1468 1471 1475 1479 1482 1486 1490 1494 1498 1502 1506 1509 1512 1516 1519 1522 1525 1528 1531 1534 1536 1538 1540 1542 1544 1545 1546 1547 1548
1442 1444 1442 1442 1436 1440 1443 1441 1436 1434 1436 1437 1439 1441 1443 1445 1448 1452 1455 1459 1463 1467 1470 1474 1478 1481 1486 1490 1494 1498 1502 1505 1508 1511 1515 1518 1522 1525 1528 1531 1534 1536 1538 1540 1542 1543 1545 1546 1547
1432 1436 1437 1434 1431 1435 1437 1436 1432 1430 1432 1433 1433 1435 1437 1439 1443 1446 1450 1453 1457 1460 1464 1467 1471 1476 1480 1484 1487 1491 1494 1498 1502 1506 1510 1514 1518 1521 1524 1527 1530 1533 1535 1537 1539 1541 1543 1544 1545
1429 1432 1433 1432 1429 1431 1433 1432 1427 1425 1425 1425 1426 1427 1429 1432 1435 1439 1442 1446 1449 1452 1456 1460 1464 1468 1472 1476 1479 1484 1488 1492 1496 1501 1505 1509 1513 1517 1520 1523 1526 1529 1532 1534 1536 1538 1540 1541 1543
1423 1426 1429 1431 1429 1428 1431 1430 1424 1418 1418 1418 1419 1420 1422 1424 1427 1431 1434 1437 1441 1444 1448 1452 1456 1460 1464 1469 1474 1479 1484 1488 1491 1495 1498 1503 1507 1511 1515 1519 1522 1525 1528 1531 1533 1535 1537 1539 1540
1415 1417 1424 1428 1432 1434 1433 1437 1422 1416 1414 1413 1412 1413 1414 1417 1420 1423 1426 1429 1432 1436 1441 1444 1448 1452 1456 1461 1465 1469 1473 1476 1480 1485 1490 1496 1501 1506 1510 1514 1517 1521 1524 1527 1529 1532 1534 1536 1537
1408 1411 1420 1425 1430 1434 1432 1435 1421 1413 1411 1405 1404 1404 1406 1408 1411 1414 1417 1421 1425 1429 1433 1437 1440 1444 1448 1452 1456 1461 1465 1470 1475 1480 1485 1490 1495 1500 1504 1509 1512 1516 1519 1522 1525 1528 1530 1532 1534
1405 1412 1418 1422 1429 1430 1424 1432 1419 1410 1401 1398 1396 1396 1398 1400 1403 1406 1409 1413 1417 1421 1425 1429 1432 1436 1440 1444 1448 1453 1457 1463 1468 1472 1478 1483 1488 1493 1498 1502 1506 1510 1514 1517 1520 1523 1526 1528 1530
1400 1410 1419 1421 1422 1417 1414 1419 1404 1394 1390 1389 1390 1390 1391 1394 1396 1399 1402 1405 1409 1413 1417 1420 1424 1428 1432 1436 1441 1445 1450 1455 1460 1465 1470 1475 1481 1485 1490 1495 1500 1504 1508 1512 1516 1519 1521 1524 1525
1390 1397 1404 1408 1410 1412 1411 1407 1393 1383 1381 1381 1383 1384 1386 1388 1390 1392 1395 1398 1401 1405 1409 1413 1416 1420 1425 1429 1433 1438 1443 1448 1453 1459 1463 1468 1473 1478 1484 1489 1494 1498 1503 1507 1510 1513 1516 1519 1521
1386 1389 1392 1401 1405 1408 1407 1399 1389 1379 1378 1378 1378 1379 1379 1381 1383 1386 1388 1392 1395 1398 1402 1405 1409 1413 1417 1421 1426 1431 1436 1441 1446 1451 1457 1462 1467 1473 1478 1483 1488 1492 1497 1501 1505 1508 1511 1514 1516
1378 1383 1391 1396 1399 1399 1398 1396 1386 1377 1373 1372 1373 1372 1372 1375 1377 1380 1383 1386 1389 1392 1395 1399 1402 1406 1410 1415 1419 1424 1429 1434 1439 1445 1450 1456 1461 1467 1472 1477 1482 1486 1491 1495 1499 1502 1506 1508 1511
1379 1382 1382 1387 1390 1391 1393 1386 1368 1365 1364 1365 1365 1365 1367 1370 1372 1375 1378 1381 1384 1387 1390 1393 1397 1400 1404 1408 1413 1418 1423 1428 1433 1439 1444 1450 1455 1461 1466 1471 1475 1480 1484 1489 1493 1496 1500 1502 1505
1371 1377 1381 1385 1388 1388 1387 1378 1357 1359 1358 1359 1361 1362 1364 1366 1369 1372 1374 1377 1380 1382 1385 1388 1392 1395 1399 1403 1408 1412 1417 1422 1427 1432 1438 1444 1449 1455 1460 1465 1469 1474 1478 1482 1486 1490 1493 1496 1499